User: anonymous   Login
Location: Betra
(48.4113°N, 8.6634°E)
Time: 06:49:33
(UTC+00:00)
Language:

Cosmos 1674 Rocket - Orbit

View from above orbital plane
View from above orbital plane
View from above satellite
View from above satellite

Ground track
Ground track

The orbit data is extracted from the following two-line orbital elements,

1 15945U 85069B   24202.79475654  .00001049  00000-0  11911-3 0  9999
2 15945  82.5253 225.7847 0019458  13.4979 346.6754 14.85274637 84190
Epoch (UTC): 20 July 2024 19:04:26
Eccentricity: 0.0019458
inclination: 82.5253°
perigee height: 599 km
apogee height: 626 km
right ascension of ascending node: 225.7847°
argument of perigee: 13.4979°
revolutions per day: 14.85274637
mean anomaly at epoch: 346.6754°
orbit number at epoch: 8419

The dashed part of the orbit path shows where the satellite is in the earth's shadow,  

DLR